| time (UTC) | temp C | wind direction | speed KPH | gust KPH | rain 1hr cm | rain 24hr cm | rain mn cm | humidity % | barometer mb |
| 20260507144015 | 17 | 0.0 | 8.0 | 0.00 | 0.00 | 0.00 | 24 | 1017.4 | |
| 20260507143015 | 17 | 270 | 1.6 | 9.7 | 0.00 | 0.00 | 0.00 | 25 | 1017.2 |
| 20260507142015 | 17 | 270 | 3.2 | 12.9 | 0.00 | 0.00 | 0.00 | 25 | 1017.1 |
| 20260507141016 | 17 | 270 | 4.8 | 14.5 | 0.00 | 0.00 | 0.00 | 25 | 1016.5 |
| 20260507140015 | 17 | 270 | 1.6 | 14.5 | 0.00 | 0.00 | 0.00 | 24 | 1016.8 |
| 20260507135035 | 17 | 0.0 | 0.0 | 0.00 | 0.00 | 0.00 | 23 | 1016.7 | |
| 20260507134015 | 17 | 0.0 | 8.0 | 0.00 | 0.00 | 0.00 | 25 | 1016.7 | |
| 20260507133036 | 16 | 293 | 4.8 | 16.1 | 0.00 | 0.00 | 0.00 | 26 | 1016.0 |
| 20260507132017 | 16 | 0.0 | 0.0 | 0.00 | 0.00 | 0.00 | 26 | 1016.0 | |
| 20260507131017 | 16 | 293 | 3.2 | 9.7 | 0.00 | 0.00 | 0.00 | 28 | 1015.9 |
| 20260507130018 | 16 | 293 | 6.4 | 16.1 | 0.00 | 0.00 | 0.00 | 28 | 1015.8 |
| 20260507125017 | 16 | 293 | 9.7 | 16.1 | 0.00 | 0.00 | 0.00 | 28 | 1015.7 |
| 20260507124017 | 16 | 293 | 4.8 | 14.5 | 0.00 | 0.00 | 0.00 | 29 | 1015.0 |
| 20260507123015 | 15 | 0.0 | 9.7 | 0.00 | 0.00 | 0.00 | 30 | 1014.8 | |
| 20260507122017 | 15 | 293 | 8.0 | 16.1 | 0.00 | 0.00 | 0.00 | 32 | 1014.7 |
| 20260507121017 | 15 | 270 | 1.6 | 14.5 | 0.00 | 0.00 | 0.00 | 31 | 1014.7 |
| 20260507120037 | 15 | 0.0 | 8.0 | 0.00 | 0.00 | 0.00 | 32 | 1014.7 | |
| 20260507115017 | 15 | 248 | 8.0 | 16.1 | 0.00 | 0.00 | 0.00 | 31 | 1014.7 |
| 20260507114017 | 16 | 248 | 1.6 | 9.7 | 0.00 | 0.00 | 0.00 | 30 | 1015.0 |
| 20260507113017 | 16 | 0.0 | 11.3 | 0.00 | 0.00 | 0.00 | 29 | 1014.9 | |
| 20260507112016 | 16 | 0.0 | 11.3 | 0.00 | 0.00 | 0.00 | 29 | 1014.9 | |
| 20260507111018 | 16 | 0.0 | 0.0 | 0.00 | 0.00 | 0.00 | 29 | 1014.9 | |
| 20260507110016 | 15 | 248 | 1.6 | 6.4 | 0.00 | 0.00 | 0.00 | 30 | 1014.5 |
| 20260507105016 | 15 | 248 | 1.6 | 8.0 | 0.00 | 0.00 | 0.00 | 31 | 1014.5 |
| 20260507104017 | 16 | 0.0 | 0.0 | 0.00 | 0.00 | 0.00 | 30 | 1015.2 | |
| 20260507103017 | 16 | 0.0 | 0.0 | 0.00 | 0.00 | 0.00 | 28 | 1015.1 | |
| 20260507102016 | 16 | 248 | 3.2 | 9.7 | 0.00 | 0.00 | 0.00 | 28 | 1015.0 |
| 20260507101037 | 16 | 248 | 1.6 | 9.7 | 0.00 | 0.00 | 0.00 | 29 | 1015.0 |
| 20260507100017 | 16 | 248 | 1.6 | 9.7 | 0.00 | 0.00 | 0.00 | 32 | 1015.1 |
| 20260507095016 | 17 | 248 | 4.8 | 12.9 | 0.00 | 0.00 | 0.00 | 29 | 1015.5 |
| 20260507094016 | 17 | 248 | 3.2 | 12.9 | 0.00 | 0.00 | 0.00 | 29 | 1015.5 |
| 20260507093017 | 17 | 248 | 4.8 | 11.3 | 0.00 | 0.00 | 0.00 | 28 | 1015.6 |
| 20260507092017 | 17 | 248 | 1.6 | 12.9 | 0.00 | 0.00 | 0.00 | 30 | 1015.5 |
| 20260507091016 | 17 | 248 | 3.2 | 12.9 | 0.00 | 0.00 | 0.00 | 32 | 1015.5 |
| 20260507090058 | 17 | 248 | 4.8 | 9.7 | 0.00 | 0.00 | 0.00 | 32 | 1015.7 |
| 20260507085016 | 17 | 248 | 1.6 | 11.3 | 0.00 | 0.00 | 0.00 | 32 | 1015.8 |
| 20260507084016 | 17 | 0.0 | 0.0 | 0.00 | 0.00 | 0.00 | 31 | 1015.9 | |
| 20260507083017 | 17 | 248 | 1.6 | 9.7 | 0.00 | 0.00 | 0.00 | 30 | 1016.0 |
| 20260507082016 | 17 | 248 | 4.8 | 11.3 | 0.00 | 0.00 | 0.00 | 30 | 1016.2 |
| 20260507081016 | 17 | 248 | 1.6 | 9.7 | 0.00 | 0.00 | 0.00 | 30 | 1016.4 |
| 20260507080016 | 17 | 0.0 | 8.0 | 0.00 | 0.00 | 0.00 | 30 | 1016.3 | |
| 20260507075017 | 17 | 248 | 1.6 | 9.7 | 0.00 | 0.00 | 0.00 | 30 | 1016.4 |
| 20260507074016 | 18 | 248 | 4.8 | 9.7 | 0.00 | 0.00 | 0.00 | 29 | 1017.0 |
| 20260507073016 | 18 | 248 | 4.8 | 11.3 | 0.00 | 0.00 | 0.00 | 29 | 1017.2 |
| 20260507072016 | 18 | 248 | 3.2 | 9.7 | 0.00 | 0.00 | 0.00 | 29 | 1017.2 |
| 20260507071017 | 18 | 248 | 1.6 | 8.0 | 0.00 | 0.00 | 0.00 | 28 | 1017.2 |
| 20260507070016 | 18 | 248 | 1.6 | 8.0 | 0.00 | 0.00 | 0.00 | 28 | 1017.2 |
| 20260507065016 | 19 | 248 | 1.6 | 8.0 | 0.00 | 0.00 | 0.00 | 28 | 1017.1 |
| 20260507064016 | 19 | 248 | 1.6 | 9.7 | 0.00 | 0.00 | 0.00 | 28 | 1017.5 |
| 20260507063016 | 19 | 248 | 1.6 | 9.7 | 0.00 | 0.00 | 0.00 | 28 | 1017.7 |
| 20260507062016 | 19 | 0.0 | 3.2 | 0.00 | 0.00 | 0.00 | 27 | 1017.8 | |
| 20260507061016 | 20 | 0.0 | 0.0 | 0.00 | 0.00 | 0.00 | 27 | 1017.9 | |
| 20260507060017 | 20 | 0.0 | 0.0 | 0.00 | 0.00 | 0.00 | 27 | 1018.0 | |
| 20260507055017 | 20 | 0.0 | 0.0 | 0.00 | 0.00 | 0.00 | 27 | 1018.0 | |
| 20260507054016 | 20 | 0.0 | 0.0 | 0.00 | 0.00 | 0.00 | 26 | 1018.1 | |
| 20260507053016 | 20 | 0.0 | 0.0 | 0.00 | 0.00 | 0.00 | 26 | 1018.0 | |
| 20260507052017 | 20 | 0.0 | 0.0 | 0.00 | 0.00 | 0.00 | 26 | 1018.1 | |
| 20260507051016 | 20 | 0.0 | 6.4 | 0.00 | 0.00 | 0.00 | 26 | 1018.6 | |
| 20260507050016 | 20 | 248 | 1.6 | 8.0 | 0.00 | 0.00 | 0.00 | 26 | 1018.6 |
| 20260507045016 | 20 | 248 | 1.6 | 11.3 | 0.00 | 0.00 | 0.00 | 26 | 1018.6 |
| 20260507044101 | 21 | 248 | 4.8 | 14.5 | 0.00 | 0.00 | 0.00 | 25 | 1018.5 |
| 20260507043016 | 21 | 248 | 8.0 | 19.3 | 0.00 | 0.00 | 0.00 | 26 | 1018.4 |
| 20260507042036 | 21 | 248 | 8.0 | 19.3 | 0.00 | 0.00 | 0.00 | 25 | 1018.2 |
| 20260507041016 | 21 | 248 | 6.4 | 17.7 | 0.00 | 0.00 | 0.00 | 25 | 1018.2 |
| 20260507040017 | 21 | 248 | 4.8 | 16.1 | 0.00 | 0.00 | 0.00 | 25 | 1018.6 |
| 20260507035016 | 21 | 225 | 4.8 | 11.3 | 0.00 | 0.00 | 0.00 | 24 | 1018.5 |
| 20260507034016 | 21 | 248 | 3.2 | 12.9 | 0.00 | 0.00 | 0.00 | 24 | 1018.4 |
| 20260507033016 | 22 | 248 | 6.4 | 16.1 | 0.00 | 0.00 | 0.00 | 24 | 1018.3 |
| 20260507032016 | 22 | 225 | 8.0 | 19.3 | 0.00 | 0.00 | 0.00 | 23 | 1018.2 |
| 20260507031016 | 22 | 225 | 6.4 | 22.5 | 0.00 | 0.00 | 0.00 | 23 | 1017.9 |
| 20260507030016 | 22 | 225 | 8.0 | 22.5 | 0.00 | 0.00 | 0.00 | 22 | 1018.1 |
| 20260507024017 | 22 | 248 | 8.0 | 30.6 | 0.00 | 0.00 | 0.00 | 22 | 1017.9 |
| 20260507023015 | 23 | 248 | 9.7 | 30.6 | 0.00 | 0.00 | 0.00 | 21 | 1017.6 |
| 20260507022017 | 23 | 248 | 9.7 | 30.6 | 0.00 | 0.00 | 0.00 | 21 | 1017.4 |
| 20260507021016 | 23 | 248 | 11.3 | 25.7 | 0.00 | 0.00 | 0.00 | 22 | 1017.2 |
| 20260507020015 | 23 | 248 | 6.4 | 25.7 | 0.00 | 0.00 | 0.00 | 22 | 1017.4 |
| 20260507015016 | 23 | 225 | 3.2 | 25.7 | 0.00 | 0.00 | 0.00 | 22 | 1017.2 |
| 20260507014016 | 24 | 0.0 | 0.0 | 0.00 | 0.00 | 0.00 | 22 | 1017.0 | |
| 20260507013037 | 24 | 0.0 | 0.0 | 0.00 | 0.00 | 0.00 | 21 | 1016.7 | |
| 20260507012016 | 25 | 0.0 | 0.0 | 0.00 | 0.00 | 0.00 | 21 | 1017.0 | |
| 20260507011015 | 25 | 0.0 | 0.0 | 0.00 | 0.00 | 0.00 | 20 | 1016.9 | |
| 20260507010020 | 25 | 0.0 | 0.0 | 0.00 | 0.00 | 0.00 | 20 | 1016.9 | |
| 20260507005015 | 26 | 0.0 | 0.0 | 0.00 | 0.00 | 0.00 | 19 | 1016.7 | |
| 20260507004015 | 25 | 0.0 | 0.0 | 0.00 | 0.00 | 0.00 | 19 | 1016.5 | |
| 20260507003016 | 26 | 0.0 | 0.0 | 0.00 | 0.00 | 0.00 | 19 | 1016.3 | |
| 20260507002015 | 26 | 0.0 | 0.0 | 0.00 | 0.00 | 0.00 | 18 | 1016.8 | |
| 20260507001015 | 26 | 0.0 | 0.0 | 0.00 | 0.00 | 0.00 | 18 | 1016.5 | |
| 20260507000016 | 26 | 0.0 | 0.0 | 0.00 | 0.00 | 0.00 | 18 | 1016.5 | |
| 20260506235015 | 26 | 0.0 | 0.0 | 0.00 | 0.00 | 0.00 | 18 | 1016.2 | |
| 20260506234015 | 27 | 0.0 | 0.0 | 0.00 | 0.00 | 0.00 | 17 | 1016.4 | |
| 20260506233015 | 27 | 0.0 | 0.0 | 0.00 | 0.00 | 0.00 | 17 | 1016.4 | |
| 20260506230015 | 27 | 0.0 | 0.0 | 0.00 | 0.00 | 0.00 | 16 | 1016.1 | |
| 20260506225032 | 27 | 0.0 | 0.0 | 0.00 | 0.00 | 0.00 | 15 | 1016.1 | |
| 20260506224035 | 28 | 0.0 | 0.0 | 0.00 | 0.00 | 0.00 | 15 | 1016.6 | |
| 20260506223018 | 28 | 0.0 | 0.0 | 0.00 | 0.00 | 0.00 | 15 | 1016.5 | |
| 20260506222016 | 28 | 0.0 | 0.0 | 0.00 | 0.00 | 0.00 | 14 | 1016.5 | |
| 20260506221017 | 29 | 0.0 | 0.0 | 0.00 | 0.00 | 0.00 | 13 | 1016.9 | |
| 20260506220037 | 28 | 0.0 | 0.0 | 0.00 | 0.00 | 0.00 | 13 | 1016.4 | |
| 20260506215017 | 29 | 0.0 | 0.0 | 0.00 | 0.00 | 0.00 | 13 | 1016.9 | |
| 20260506214018 | 29 | 0.0 | 0.0 | 0.00 | 0.00 | 0.00 | 12 | 1016.9 | |
| 20260506213017 | 29 | 0.0 | 0.0 | 0.00 | 0.00 | 0.00 | 12 | 1017.0 | |
| 20260506212017 | 29 | 0.0 | 0.0 | 0.00 | 0.00 | 0.00 | 12 | 1016.9 | |
| 20260506211016 | 29 | 0.0 | 0.0 | 0.00 | 0.00 | 0.00 | 11 | 1017.0 | |
| 20260506210018 | 30 | 0.0 | 0.0 | 0.00 | 0.00 | 0.00 | 11 | 1017.2 | |
| 20260506205016 | 29 | 0.0 | 0.0 | 0.00 | 0.00 | 0.00 | 11 | 1017.2 | |
| 20260506204017 | 29 | 0.0 | 0.0 | 0.00 | 0.00 | 0.00 | 10 | 1017.3 | |
| 20260506203016 | 29 | 0.0 | 0.0 | 0.00 | 0.00 | 0.00 | 11 | 1017.6 | |
| 20260506202017 | 29 | 0.0 | 0.0 | 0.00 | 0.00 | 0.00 | 11 | 1017.6 | |
| 20260506201016 | 29 | 0.0 | 0.0 | 0.00 | 0.00 | 0.00 | 10 | 1017.7 | |
| 20260506200037 | 29 | 0.0 | 0.0 | 0.00 | 0.00 | 0.00 | 11 | 1017.8 | |
| 20260506195017 | 28 | 0.0 | 0.0 | 0.00 | 0.00 | 0.00 | 10 | 1017.7 | |
| 20260506194017 | 29 | 0.0 | 0.0 | 0.00 | 0.00 | 0.00 | 10 | 1017.9 | |
| 20260506193036 | 29 | 0.0 | 0.0 | 0.00 | 0.00 | 0.00 | 10 | 1018.3 | |
| 20260506192016 | 29 | 0.0 | 0.0 | 0.00 | 0.00 | 0.00 | 10 | 1017.9 | |
| 20260506191017 | 29 | 0.0 | 0.0 | 0.00 | 0.00 | 0.00 | 10 | 1017.9 | |
| 20260506190057 | 28 | 0.0 | 0.0 | 0.00 | 0.00 | 0.00 | 10 | 1017.8 | |
| 20260506185016 | 28 | 0.0 | 0.0 | 0.00 | 0.00 | 0.00 | 9 | 1018.1 | |
| 20260506184017 | 28 | 0.0 | 0.0 | 0.00 | 0.00 | 0.00 | 9 | 1018.2 | |
| 20260506183016 | 28 | 0.0 | 0.0 | 0.00 | 0.00 | 0.00 | 8 | 1018.4 | |
| 20260506182016 | 28 | 0.0 | 0.0 | 0.00 | 0.00 | 0.00 | 9 | 1018.5 | |
| 20260506181021 | 28 | 0.0 | 0.0 | 0.00 | 0.00 | 0.00 | 9 | 1018.6 | |
| 20260506180016 | 28 | 0.0 | 0.0 | 0.00 | 0.00 | 0.00 | 8 | 1018.7 | |
| 20260506175016 | 28 | 0.0 | 0.0 | 0.00 | 0.00 | 0.00 | 8 | 1018.8 | |
| 20260506174016 | 27 | 0.0 | 0.0 | 0.00 | 0.00 | 0.00 | 8 | 1018.4 | |
| 20260506173017 | 27 | 0.0 | 0.0 | 0.00 | 0.00 | 0.00 | 7 | 1018.5 | |
| 20260506172016 | 27 | 0.0 | 0.0 | 0.00 | 0.00 | 0.00 | 7 | 1018.5 | |
| 20260506171017 | 27 | 0.0 | 0.0 | 0.00 | 0.00 | 0.00 | 8 | 1018.5 | |
| 20260506170016 | 26 | 0.0 | 0.0 | 0.00 | 0.00 | 0.00 | 7 | 1018.2 | |
| 20260506165018 | 26 | 0.0 | 0.0 | 0.00 | 0.00 | 0.00 | 8 | 1018.2 | |
| 20260506164016 | 26 | 0.0 | 0.0 | 0.00 | 0.00 | 0.00 | 8 | 1018.2 | |
| 20260506163016 | 26 | 0.0 | 0.0 | 0.00 | 0.00 | 0.00 | 8 | 1018.2 | |
| 20260506162016 | 25 | 0.0 | 0.0 | 0.00 | 0.00 | 0.00 | 9 | 1017.9 | |
| 20260506161037 | 25 | 0.0 | 0.0 | 0.00 | 0.00 | 0.00 | 9 | 1018.0 | |
| 20260506160016 | 24 | 0.0 | 0.0 | 0.00 | 0.00 | 0.00 | 10 | 1017.8 | |
| 20260506155016 | 24 | 0.0 | 0.0 | 0.00 | 0.00 | 0.00 | 11 | 1017.9 | |
| 20260506154016 | 23 | 0.0 | 0.0 | 0.00 | 0.00 | 0.00 | 13 | 1017.5 | |
| 20260506153016 | 22 | 0.0 | 0.0 | 0.00 | 0.00 | 0.00 | 15 | 1017.7 | |
| 20260506152016 | 22 | 0.0 | 0.0 | 0.00 | 0.00 | 0.00 | 16 | 1017.2 | |
| 20260506151016 | 21 | 0.0 | 0.0 | 0.00 | 0.00 | 0.00 | 18 | 1017.4 | |
| 20260506150016 | 21 | 0.0 | 0.0 | 0.00 | 0.00 | 0.00 | 20 | 1017.1 | |
| 20260506145015 | 21 | 0.0 | 0.0 | 0.00 | 0.00 | 0.00 | 22 | 1017.2 |